Starlink 5646

operational
NORAD ID: 55461 Int'l Des: 2023-015 Owner: SPXS Country: US Constellation: starlink
LEOCIRCULAR

Über Starlink 5646

Beschreibung wird geladen...

Live-Position

3D-Globus wird geladen...

Nächste Überflüge

Höhenverlauf

Altitude vs Time

uPlot chart will show altitude changes over time

Zweizeiliger Elementsatz

1 55461U 23015N 25304.00267424 .00000071 00000-0 20365-4 0 9999
2 55461 43.0044 310.8516 0001185 265.1643 94.9064 15.02537272151243
Epoch: 31. Okt. 2025 • Age: 19 hours

Aktueller Status

Höhe 570.4 km
Geschwindigkeit 7.58 km/s
Subsatellitenpunkt -40.07°S, 130.76°W
Startdatum 2. Feb. 2023
Alter 2.7 years
Typ internet

Technische Details

Klassifizierung Payload
Masse 305.00 kg
Trockenmasse 290.00 kg
Gesamtmasse 305.00 kg
Länge 0.20 m
Durchmesser 2.80 m
Spannweite 9.00 m
Form Box + pan
Hersteller SPXS
Bus-Typ Starlink
Phasenstatus In Orbit
Besitzer/Staat SPXS/US

Große Konstellationen

Loading constellations...